Location: Huesca
(42.1318°N, 0.4078°W)
Time: 21:33:15
(UTC+02:00)

DIWATA 2B (PO-101) - Pass Details

Date: 29 April 2024
Orbit: 575 x 589 km, 98.1° (Epoch: 20 May)

Event Time Altitude Azimuth Distance (km) Brightness Sun altitude
Exits shadow 05:46:07 - 181° (S) 2,424 ? -12.9°
Reaches altitude 10° 05:47:23 10° 184° (S) 1,911 ? -12.7°
Maximum altitude 05:51:25 49° 260° (W) 765 ? -12.1°
Drops below altitude 10° 05:55:27 10° 336° (NNW) 1,922 ? -11.5°
Sets 05:57:41 0° 342° (NNW) 2,825 ? -11.1°
